Location: Newark
(38.1091°N, 103.8677°W)
Time: 07:41:58
(UTC+00:00)

N. Korean satellite - Pass Details

Date: 25 October 2019
Orbit: 456 x 506 km, 97.2° (Epoch: 20 November)

Event Time Altitude Azimuth Distance (km) Brightness Sun altitude
Rises 12:06:59 0° 26° (NNE) 2,581 10.5 -13.8°
Reaches altitude 10° 12:09:21 10° 40° (NE) 1,702 9.8 -13.3°
Maximum altitude 12:12:23 24° 96° (E) 1,067 9.3 -12.7°
Drops below altitude 10° 12:15:25 10° 152° (SSE) 1,706 9.8 -12.1°
Sets 12:17:47 0° 166° (SSE) 2,589 10.5 -11.7°
